Decorah, Iowa, United States (52101)
Lat: 43.30N, Lon: 91.79W
Wx Zone: IAZ010
Local Info
Past Weather Observations for Today

NOTE: This archive is for the closest National Weather Service station to Decorah. Information may differ from the station used for current weather conditions.

Time Weather Temperature Dewpoint Humidity Pressure Winds Precip Visibility
17:15
Mostly Cloudy
61°F / 16°C 59°F / 15°C 94% 29.98 in
(1015 mb)
NE 4.6 mph
(NE 7 kph)
- 10SM
16:55
Mostly Cloudy
63°F / 17°C 59°F / 15°C 88% 29.98 in
(1015 mb)
ENE 4.6 mph
(ENE 7 kph)
0.01 in
(0.25 mm)
10SM
16:35
Mostly Cloudy
61°F / 16°C 59°F / 15°C 94% 29.98 in
(1015 mb)
SE 8.1 mph
(SE 13 kph)
- 10SM
16:15
Overcast
59°F / 15°C 59°F / 15°C 100% 29.98 in
(1015 mb)
SE 8.1 mph
(SE 13 kph)
- 8SM
15:55
Mostly Cloudy
Light Rain
61°F / 16°C 59°F / 15°C 94% 30.01 in
(1016 mb)
E 4.6 mph
(E 7 kph)
0.01 in
(0.25 mm)
5SM
15:35
Overcast
61°F / 16°C 57°F / 14°C 88% 30.01 in
(1016 mb)
Calm - 10SM
15:15
Mostly Cloudy
61°F / 16°C 57°F / 14°C 88% 30.01 in
(1016 mb)
Calm - 10SM
14:55
Partly Cloudy
61°F / 16°C 57°F / 14°C 88% 30.01 in
(1016 mb)
Variable 4.6 mph
(Variable 7 kph)
- 10SM
14:35
Partly Cloudy
61°F / 16°C 57°F / 14°C 88% 30.04 in
(1017 mb)
Variable 3.5 mph
(Variable 6 kph)
- 10SM
14:15
Partly Cloudy
57°F / 14°C 57°F / 14°C 100% 30.04 in
(1017 mb)
SSE 5.8 mph
(SSE 9 kph)
- 8SM
13:55
Mostly Cloudy
55°F / 13°C 55°F / 13°C 100% 30.04 in
(1017 mb)
SSE 6.9 mph
(SSE 11 kph)
0.04 in
(1.02 mm)
9SM
13:35
Overcast
Light Rain
55°F / 13°C 55°F / 13°C 100% 30.04 in
(1017 mb)
SSE 8.1 mph
(SSE 13 kph)
- 6SM
13:15
Overcast
Fog And Mist
55°F / 13°C 55°F / 13°C 100% 30.04 in
(1017 mb)
S 11.5 mph
(S 19 kph)
- 5SM
12:55
Overcast
Fog And Mist
54°F / 12°C 54°F / 12°C 100% 30.04 in
(1017 mb)
S 9.2 mph
(S 15 kph)
0.03 in
(0.76 mm)
6SM
12:35
Mostly Cloudy
54°F / 12°C 54°F / 12°C 100% 30.06 in
(1018 mb)
SSE 6.9 mph
(SSE 11 kph)
- 7SM
12:15
Partly Cloudy
Light Rain
54°F / 12°C 54°F / 12°C 100% 30.04 in
(1017 mb)
SSE 11.5 mph
(SSE 19 kph)
- 5SM
11:55
Mostly Cloudy
Light Rain
54°F / 12°C 54°F / 12°C 100% 30.04 in
(1017 mb)
SE 9.2 mph
(SE 15 kph)
0.15 in
(3.81 mm)
4SM
11:35
Overcast
Light Rain
54°F / 12°C 54°F / 12°C 100% 30.06 in
(1018 mb)
SE 6.9 mph
(SE 11 kph)
- 2 1/2SM
11:15
Overcast
Heavy Rain
54°F / 12°C 54°F / 12°C 100% 30.09 in
(1019 mb)
S 5.8 mph
(S 9 kph)
- 2SM
10:55
Overcast
Light Rain
54°F / 12°C 52°F / 11°C 94% 30.09 in
(1019 mb)
SSE 6.9 mph
(SSE 11 kph)
0.07 in
(1.78 mm)
3SM
10:35
Overcast
Light Rain
54°F / 12°C 52°F / 11°C 94% 30.09 in
(1019 mb)
SSE 6.9 mph
(SSE 11 kph)
- 7SM
10:15
Mostly Cloudy
Light Rain
54°F / 12°C 52°F / 11°C 94% 30.09 in
(1019 mb)
S 5.8 mph
(S 9 kph)
- 3SM
09:55
Mostly Cloudy
Light Rain
54°F / 12°C 50°F / 10°C 88% 30.09 in
(1019 mb)
Variable 3.5 mph
(Variable 6 kph)
0.02 in
(0.51 mm)
5SM
09:35
Mostly Cloudy
55°F / 13°C 50°F / 10°C 82% 30.09 in
(1019 mb)
Calm - 10SM
09:15
Mostly Cloudy
54°F / 12°C 50°F / 10°C 88% 30.09 in
(1019 mb)
Calm - 8SM
08:55
Mostly Cloudy
Light Rain
54°F / 12°C 50°F / 10°C 88% 30.09 in
(1019 mb)
S 5.8 mph
(S 9 kph)
0.02 in
(0.51 mm)
9SM
08:35
Partly Cloudy
54°F / 12°C 50°F / 10°C 88% 30.09 in
(1019 mb)
S 4.6 mph
(S 7 kph)
- 10SM
08:15
Mostly Cloudy
Light Rain
54°F / 12°C 48°F / 9°C 82% 30.09 in
(1019 mb)
S 4.6 mph
(S 7 kph)
- 6SM
07:55
Overcast
Light Rain
54°F / 12°C 46°F / 8°C 77% 30.09 in
(1019 mb)
S 4.6 mph
(S 7 kph)
0.03 in
(0.76 mm)
9SM
07:35
Overcast
54°F / 12°C 48°F / 9°C 82% 30.06 in
(1018 mb)
S 9.2 mph
(S 15 kph)
- 10SM
07:15
Overcast
Rain
52°F / 11°C 48°F / 9°C 88% 30.06 in
(1018 mb)
S 10.4 mph
(S 17 kph)
- 3SM
06:55
Overcast
Hazy
55°F / 13°C 45°F / 7°C 67% 30.06 in
(1018 mb)
S 11.5 mph
(S 19 kph)
0.01 in
(0.25 mm)
4SM
06:35
Overcast
57°F / 14°C 43°F / 6°C 59% 30.09 in
(1019 mb)
S 8.1 mph
(S 13 kph)
- 10SM
06:15
Overcast
57°F / 14°C 43°F / 6°C 59% 30.09 in
(1019 mb)
Variable 6.9 mph
(Variable 11 kph)
- 10SM
05:55
Overcast
59°F / 15°C 41°F / 5°C 51% 30.06 in
(1018 mb)
S 10.4 mph
(S 17 kph)
- 10SM
05:35
Overcast
57°F / 14°C 43°F / 6°C 59% 30.06 in
(1018 mb)
S 9.2 mph
(S 15 kph)
- 10SM
05:15
Mostly Cloudy
Hazy
57°F / 14°C 43°F / 6°C 59% 30.06 in
(1018 mb)
S 13.8 mph
(S 22 kph)
- 6SM
04:55
Overcast
59°F / 15°C 41°F / 5°C 51% 30.06 in
(1018 mb)
S 11.5 mph
(S 19 kph)
- 10SM
04:35
Overcast
61°F / 16°C 39°F / 4°C 45% 30.06 in
(1018 mb)
S 11.5 mph
(S 19 kph)
- 10SM
04:15
Overcast
61°F / 16°C 39°F / 4°C 45% 30.06 in
(1018 mb)
S 12.7 mph
(S 20 kph)
- 10SM
03:55
Overcast
61°F / 16°C 39°F / 4°C 45% 30.06 in
(1018 mb)
S 12.7 mph
(S 20 kph)
- 10SM
03:35
Overcast
61°F / 16°C 39°F / 4°C 45% 30.06 in
(1018 mb)
S 10.4 mph
(S 17 kph)
- 10SM
03:15
Overcast
61°F / 16°C 39°F / 4°C 45% 30.06 in
(1018 mb)
S 12.7 mph
(S 20 kph)
- 10SM
02:55
Overcast
61°F / 16°C 39°F / 4°C 45% 30.06 in
(1018 mb)
S 13.8 mph
(S 22 kph)
- 10SM
02:35
Overcast
61°F / 16°C 39°F / 4°C 45% 30.06 in
(1018 mb)
S 10.4 mph
(S 17 kph)
- 10SM
02:15
Overcast
61°F / 16°C 39°F / 4°C 45% 30.06 in
(1018 mb)
S 11.5 mph
(S 19 kph)
- 10SM
01:55
Overcast
63°F / 17°C 39°F / 4°C 42% 30.06 in
(1018 mb)
S 9.2 mph
(S 15 kph)
- 10SM
01:35
Overcast
63°F / 17°C 41°F / 5°C 45% 30.06 in
(1018 mb)
S 11.5 mph
(S 19 kph)
- 10SM
01:15
Overcast
63°F / 17°C 41°F / 5°C 45% 30.06 in
(1018 mb)
S 11.5 mph
(S 19 kph)
- 10SM
00:55
Overcast
63°F / 17°C 41°F / 5°C 45% 30.06 in
(1018 mb)
S 12.7 mph
(S 20 kph)
- 10SM
00:35
Overcast
61°F / 16°C 41°F / 5°C 48% 30.06 in
(1018 mb)
S 15 mph
(S 24 kph)
- 10SM
00:15
Overcast
61°F / 16°C 41°F / 5°C 48% 30.06 in
(1018 mb)
S 12.7 mph
(S 20 kph)
- 10SM
Time Weather Temperature Dewpoint Humidity Pressure Winds Precip Visibility


Weather for websites

WeatherForYou.com, LLC is not responsible for any damages or problems caused by this service. Current weather conditions are obtained from the closest station including government and personal stations which may have varying degrees of accuracy. Weather forecasts are derived from the NOAA NDFD. Like all things, this site belongs to Jesus Christ... He just trusts me to maintain it. If you have any questions or comments email webmaster@weatherforyou.com

Copyright © 2014, WeatherForYou.com LLC. All rights reserved.